SCP
2 2 2 1 1 1 1 1 1 0 0 0 0 0 0 0 0 0 0 0 0 0 0 0 0 0 1 1 0 0 0 0 1 1 1 1 0 0 0 0 0 0 0
2 2 2 1 1 1 1 1 1 1 0 0 0 0 0 0 0 0 0 0 0 0 0 0 0 0 0 0 1 0 0 0 1 1 1 1 1 1 1 0 0 0 0
2 2 2 2 1 1 1 1 1 1 0 0 0 0 0 0 0 0 0 0 0 0 0 0 0 0 0 0 1 1 1 0 1 1 1 1 1 1 1 1 1 0 0
2 2 2 2 1 1 1 1 1 1 0 0 0 0 0 0 0 0 0 0 0 0 0 0 0 0 0 1 1 1 1 1 1 1 1 1 1 2 2 1 1 1 1
2 2 2 2 2 2 1 1 1 1 0 0 0 0 0 0 0 0 0 0 0 0 0 0 0 0 0 0 1 1 1 1 1 1 1 1 1 1 2 2 1 1 1
2 2 2 2 2 1 1 1 1 1 0 0 0 0 0 0 0 0 0 0 0 0 0 0 0 0 0 0 0 0 0 1 1 1 1 1 2 2 2 2 2 1 1
2 2 2 2 2 1 1 1 1 1 1 1 1 1 0 0 0 0 0 0 0 0 0 1 1 1 1 0 0 0 0 1 1 1 1 2 2 2 2 2 2 1 1
2 2 2 2 2 1 1 1 1 1 1 1 1 0 0 0 0 0 0 0 0 0 0 0 1 1 1 1 0 0 0 1 1 1 2 2 2 3 2 2 2 2 1
1 1 2 2 2 2 1 1 1 1 1 0 0 0 0 0 0 0 0 0 0 0 0 0 0 0 1 1 1 0 0 0 1 1 1 1 2 2 2 2 2 2 2
1 1 1 2 2 1 1 1 1 1 1 0 0 0 0 0 0 0 0 0 0 0 0 0 0 0 0 1 1 0 0 0 1 1 1 1 1 2 2 2 2 2 2
1 1 1 1 1 1 1 1 1 1 1 1 0 0 0 0 0 0 0 0 0 0 0 0 0 0 0 0 0 0 0 0 0 1 1 1 1 1 1 2 2 2 2
2 1 1 1 1 1 1 1 2 1 1 1 1 0 0 0 0 0 0 0 0 0 0 0 0 0 0 0 0 0 0 0 0 0 1 1 1 1 1 1 2 2 2
2 2 1 1 1 1 1 1 2 1 1 1 1 1 0 0 0 0 0 0 0 0 0 0 0 0 0 0 0 0 0 0 0 0 0 1 1 1 1 1 1 1 1
2 2 2 1 1 1 1 1 2 2 1 1 1 1 1 1 1 0 0 0 0 0 0 0 0 0 0 0 0 0 0 0 0 0 0 0 1 1 1 1 1 1 1
2 2 2 1 1 1 1 1 2 2 1 1 1 1 1 1 1 1 1 0 0 0 0 0 0 0 0 0 0 0 0 0 0 0 0 0 0 0 0 0 0 0 0
2 2 2 1 1 1 1 1 1 1 1 1 1 1 1 1 1 1 1 1 1 0 0 0 0 0 0 0 0 0 0 0 0 0 0 0 0 0 0 0 0 0 0
1 1 1 1 1 1 1 1 1 1 1 1 1 0 0 1 1 1 1 1 1 1 0 0 0 1 1 0 0 0 0 0 0 0 0 0 0 0 0 0 0 0 0
1 1 1 1 1 1 1 1 1 1 1 1 0 0 0 0 0 0 1 1 1 1 0 0 0 0 0 0 0 0 0 0 0 0 0 0 0 0 0 0 0 0 0
0 1 1 1 1 0 1 1 1 1 0 0 0 0 0 0 0 0 0 0 0 0 0 0 0 0 0 0 0 0 0 0 0 0 0 0 0 0 0 0 0 0 0
0 1 1 1 0 0 1 1 1 1 0 0 0 0 0 0 0 0 0 0 0 0 0 0 0 0 0 0 0 0 0 0 0 0 0 0 0 0 0 0 0 0 0
0 1 1 1 0 0 1 1 1 0 0 0 0 0 0 0 0 0 0 0 0 0 0 0 0 0 0 0 0 0 0 0 0 0 0 0 0 0 0 0 0 0 0
0 0 0 0 0 0 0 0 0 0 0 0 0 0 0 0 0 0 0 0 0 0 0 0 0 0 0 0 0 0 0 0 0 0 0 0 0 0 0 0 0 0 0
0 0 0 0 0 0 0 0 0 0 0 0 0 0 0 0 0 0 0 0 0 0 0 0 0 0 0 0 0 0 0 0 0 0 0 0 0 0 0 0 0 0 0
0 0 0 0 0 0 0 0 0 0 0 0 0 0 0 0 0 0 0 0 0 0 0 0 0 0 0 0 0 0 0 0 0 0 0 0 0 0 0 0 0 0 0
0 0 0 0 0 0 0 0 0 0 0 0 0 0 0 0 0 0 0 0 0 0 0 0 0 0 0 0 0 0 0 0 0 0 0 0 0 0 0 0 0 0 0
0 0 0 0 0 0 0 0 0 0 0 0 0 0 0 0 0 0 0 0 0 0 0 0 0 0 0 0 0 0 0 0 0 0 0 0 0 0 0 0 0 0 0
Wind_Speed
8 8 6 7 7 7 7 7 7 8 7 7 6 6 6 6 5 4 3 5 5 5 6 6 6 6 5 6 5 5 4 4 4 3 3 3 3 3 3 4 4 4 5
8 8 8 8 8 7 7 7 8 7 6 5 6 7 6 6 6 5 4 5 6 6 6 7 7 6 6 6 6 6 5 6 5 5 4 4 3 3 3 3 3 4 5
9 8 8 8 7 7 8 7 7 6 5 5 6 7 6 6 6 6 5 4 5 6 6 7 7 7 7 7 7 6 6 6 6 6 6 5 5 4 3 3 4 4 4
11 9 8 8 8 7 7 7 6 6 6 6 5 5 5 5 7 7 5 5 5 4 6 6 6 6 6 7 7 7 7 7 6 7 7 6 6 5 4 4 4 4 4
11 9 7 7 8 7 7 7 7 7 6 6 5 5 5 5 6 6 7 7 6 5 5 5 5 5 5 7 8 8 8 7 7 7 7 7 6 6 5 5 4 4 5
11 9 7 8 8 7 6 7 7 6 6 5 4 5 5 6 6 6 7 6 6 7 6 6 5 5 6 7 8 9 9 9 9 8 8 7 6 6 6 5 5 5 5
10 9 7 8 8 7 8 8 7 7 6 4 4 4 5 7 7 6 6 6 7 7 7 7 6 5 5 8 8 9 9 10 10 10 9 9 8 7 7 6 6 5 5
9 8 9 7 8 7 8 8 7 6 5 5 4 3 4 5 6 6 6 6 7 6 7 8 8 7 6 5 5 8 9 10 10 10 10 10 9 9 8 8 7 6 6
8 8 9 8 8 7 7 8 8 9 6 6 6 4 4 5 3 5 7 7 7 6 7 7 9 9 8 7 6 7 8 9 10 11 11 11 11 10 10 9 9 8 6
6 7 7 8 7 6 7 8 8 7 7 6 5 5 5 3 4 4 5 7 8 9 9 7 8 8 9 7 6 7 8 9 11 12 12 12 12 11 10 10 9 7 6
4 5 6 6 6 5 6 7 7 8 6 6 5 5 5 4 6 5 5 5 6 7 7 8 7 7 8 8 7 9 10 11 13 14 14 14 12 11 10 9 8 6 5
3 4 4 5 5 5 6 6 7 8 7 8 6 6 5 5 5 6 6 6 7 6 7 7 7 7 7 8 9 9 10 12 13 14 15 13 10 9 8 7 6 6 5
2 3 3 4 4 4 5 5 6 7 7 8 7 6 6 7 5 6 7 6 7 5 6 6 7 7 6 7 7 10 11 13 14 14 14 12 10 8 7 7 7 6 6
2 2 3 3 3 3 4 5 5 6 6 7 8 8 6 6 6 6 6 6 7 6 7 8 6 7 7 7 8 10 10 13 14 15 14 12 10 8 8 7 7 7 6
1 1 2 3 3 3 4 4 4 5 6 6 6 7 6 6 5 6 6 6 7 9 9 8 6 7 7 7 8 9 9 12 14 14 13 11 9 9 9 9 8 7 7
1 2 2 3 2 3 3 3 3 4 5 5 4 6 7 5 5 6 6 6 7 8 9 6 6 5 6 6 9 9 9 11 13 14 13 11 11 11 11 10 9 9 8
1 2 2 2 2 3 3 3 3 4 4 4 5 6 8 7 6 6 6 6 6 7 10 7 5 5 7 8 7 8 8 8 8 14 14 13 13 13 12 11 10 9 9
1 2 2 2 2 3 3 4 4 4 4 5 5 6 7 6 8 6 6 7 7 8 9 10 6 5 7 8 8 8 7 6 7 11 14 14 14 14 13 12 11 10 9
1 1 1 2 2 2 3 3 4 4 4 5 5 6 6 6 7 6 7 7 7 7 7 8 7 5 5 5 6 6 7 6 6 8 12 13 14 15 14 13 11 10 9
2 1 1 1 1 2 2 3 3 4 4 5 5 5 6 6 7 7 7 7 7 7 7 7 7 6 5 4 5 6 6 6 6 5 8 9 11 13 13 13 12 10 9
3 3 2 2 2 2 2 3 3 4 4 5 5 5 5 6 8 8 6 7 7 7 7 7 7 6 6 5 6 5 7 5 5 5 4 5 6 6 7 10 11 11 10
4 4 4 3 3 3 5 6 5 4 4 4 5 5 5 6 7 9 11 11 11 10 9 8 8 8 9 8 7 6 5 5 5 5 5 5 4 5 5 5 9 11 11
4 4 4 4 4 5 7 7 8 5 4 4 5 5 5 5 7 7 8 10 11 13 13 11 11 11 10 8 7 8 8 7 6 4 5 4 4 5 4 5 11 11 11
4 4 5 5 5 6 8 9 10 6 5 5 5 6 6 6 6 7 8 8 8 8 9 8 9 9 8 7 8 8 7 5 2 2 4 4 3 3 3 4 10 12 11
5 5 5 5 5 6 9 10 10 5 5 6 6 6 7 7 8 9 8 8 9 8 7 8 9 10 11 10 8 5 5 5 4 3 3 3 3 2 2 3 5 10 10
4 4 5 5 5 6 8 10 11 5 5 5 6 6 7 8 10 10 8 7 8 8 7 6 6 7 7 7 8 7 6 6 3 3 5 4 3 3 2 2 3 4 6
Wind_Direction
194 190 190 189 191 191 192 194 197 194 201 204 209 214 215 219 223 221 192 192 232 248 249 249 247 237 236 239 245 250 250 244 243 242 260 270 275 283 285 287 296 314 318
198 192 192 193 193 194 195 196 199 197 202 207 214 218 224 226 229 229 230 198 210 236 247 249 250 246 246 246 248 249 250 239 237 244 250 257 264 267 273 283 292 306 316
202 196 196 194 195 194 194 196 197 198 204 209 219 221 228 233 233 236 234 237 217 212 231 244 246 247 253 252 248 248 245 234 238 244 248 249 253 252 259 273 284 293 309
204 199 199 197 193 190 191 193 195 198 202 209 218 219 227 231 237 238 234 233 236 227 213 224 241 248 257 254 249 249 241 237 242 244 245 247 249 242 246 264 273 278 292
203 200 202 199 192 191 193 195 200 203 204 208 218 225 231 231 235 235 234 232 233 235 235 202 221 241 250 255 252 252 246 241 242 244 246 245 243 242 245 253 264 276 283
204 201 203 200 194 191 191 195 201 205 208 203 214 227 233 234 235 234 235 231 231 234 237 234 225 220 229 248 251 250 247 244 244 245 245 241 241 244 248 252 262 271 280
205 203 201 199 195 196 196 195 196 202 205 194 203 225 235 234 236 232 233 235 231 231 234 233 236 238 223 224 237 246 247 246 245 245 239 240 242 245 250 251 258 264 275
203 203 201 198 197 196 198 198 196 199 199 192 198 212 232 228 225 231 230 233 237 230 233 235 235 234 237 231 220 231 242 243 244 244 242 243 245 246 253 254 257 261 268
201 202 202 200 199 199 199 200 198 201 201 199 205 209 222 237 234 220 228 229 231 234 234 232 234 235 236 235 230 218 229 242 244 248 247 245 244 246 252 256 256 255 259
202 204 204 202 200 200 201 203 202 206 206 203 209 225 241 251 236 234 220 229 233 236 236 232 233 234 234 234 232 232 225 233 241 246 248 247 247 247 249 253 253 249 251
203 206 206 204 201 201 204 204 205 210 213 212 206 209 225 237 240 244 247 237 238 238 238 237 237 236 233 233 234 230 223 231 241 246 249 247 248 249 251 250 246 243 243
194 207 208 205 205 205 207 210 213 215 218 221 218 213 217 218 224 237 251 251 251 245 238 239 240 239 237 235 235 231 228 234 240 246 248 247 245 244 238 236 239 242 245
199 207 214 213 211 214 215 216 220 223 224 226 224 225 230 234 234 242 252 259 261 262 249 241 236 238 237 236 233 222 230 234 238 238 239 239 237 231 227 226 234 238 242
213 215 219 225 222 219 221 219 220 224 228 230 229 231 237 239 238 239 247 253 262 261 251 251 239 232 233 233 232 220 231 229 232 235 235 233 225 220 217 222 230 237 245
217 208 215 225 224 220 222 224 224 226 230 234 236 237 239 242 243 246 249 246 250 263 261 254 248 235 233 234 224 227 233 227 228 231 229 224 217 209 210 214 222 230 239
216 208 211 222 230 238 231 222 230 235 236 237 238 240 242 243 243 243 244 248 250 257 265 257 252 248 233 236 230 232 234 227 227 226 224 217 209 207 210 212 218 224 232
230 224 225 223 226 237 241 229 228 236 243 250 251 246 245 246 245 245 246 246 249 252 261 269 265 255 239 239 236 234 231 228 227 223 222 219 213 211 212 214 216 221 229
293 250 233 231 235 242 240 237 237 239 243 250 256 258 254 250 250 252 251 250 251 251 255 265 267 256 246 241 239 236 234 233 232 222 222 223 219 216 212 211 214 219 226
325 283 234 240 250 256 253 249 247 250 252 258 263 265 264 260 255 254 258 258 256 258 258 262 265 264 259 244 241 241 237 235 235 224 222 224 222 216 212 210 209 212 218
354 336 320 294 288 270 277 275 264 264 266 267 267 266 265 262 260 259 256 257 260 261 260 261 262 260 257 245 231 233 235 230 231 223 223 224 221 213 210 208 206 206 210
29 28 30 24 6 333 322 322 301 278 273 274 276 276 274 269 266 265 264 262 261 260 260 257 259 259 251 234 229 228 235 232 235 218 218 219 213 209 205 207 204 201 205
25 24 24 20 16 7 360 342 325 298 287 284 286 287 286 275 276 275 270 266 259 256 257 258 256 253 253 249 240 229 227 225 236 204 205 219 206 210 205 200 199 201 205
20 18 15 14 11 7 0 350 344 323 301 296 295 297 300 294 290 282 279 275 266 262 259 258 257 255 255 248 239 231 224 225 237 193 191 214 203 215 205 201 197 200 203
14 11 8 4 2 2 360 354 348 335 319 314 308 302 297 297 295 296 291 283 279 275 273 269 263 263 265 257 240 233 232 228 243 200 189 208 196 207 193 196 198 198 199
13 8 1 1 1 359 0 353 345 331 323 318 315 308 302 298 303 306 296 288 289 289 286 281 282 280 274 264 251 232 213 206 220 207 194 194 172 164 176 194 193 194 195
5 359 1 360 357 354 357 353 345 336 328 321 317 313 308 310 312 310 300 291 288 293 299 301 295 289 281 264 246 229 214 211 201 200 185 174 159 149 164 176 181 186 190